TimeEDT,TemperatureF,Dew PointF,Humidity,Sea Level PressureIn,VisibilityMPH,Wind Direction,Wind SpeedMPH,Gust SpeedMPH,PrecipitationIn,Events,Conditions,WindDirDegrees,DateUTC
12:45 AM,71.6,66.2,83,29.88,10.0,WSW,11.5,-,N/A,,Overcast,240,2013-08-27 04:45:00
4:56 AM,70.0,69.1,97,29.85,5.0,SSW,3.5,-,0.02,Rain,Rain,200,2013-08-27 08:56:00
5:56 AM,69.1,68.0,96,29.85,4.0,SW,4.6,-,0.09,Rain,Light Rain,230,2013-08-27 09:56:00
5:58 AM,69.8,68.0,94,29.84,5.0,SW,4.6,-,0.00,Rain,Light Rain,220,2013-08-27 09:58:00
6:52 AM,69.8,68.0,94,29.85,2.5,Calm,Calm,-,0.11,Rain,Rain,0,2013-08-27 10:52:00
6:56 AM,69.1,69.1,100,29.86,2.0,Calm,Calm,-,0.12,Rain,Rain,0,2013-08-27 10:56:00
7:01 AM,69.8,69.8,100,29.85,2.0,Calm,Calm,-,0.01,Rain,Rain,0,2013-08-27 11:01:00
7:56 AM,70.0,69.1,97,29.86,3.0,SSW,4.6,-,0.09,Rain,Rain,200,2013-08-27 11:56:00
8:56 AM,70.0,69.1,97,29.86,4.0,SSW,4.6,-,0.06,Rain,Light Rain,210,2013-08-27 12:56:00
9:56 AM,71.1,69.1,93,29.86,10.0,South,3.5,-,0.03,Rain,Light Rain,180,2013-08-27 13:56:00
10:36 AM,71.6,69.8,94,29.85,9.0,SSE,4.6,-,0.00,,Overcast,150,2013-08-27 14:36:00
10:56 AM,71.1,69.1,93,29.85,10.0,SSE,3.5,-,0.00,,Overcast,160,2013-08-27 14:56:00
11:56 AM,71.1,68.0,90,29.85,10.0,Calm,Calm,-,N/A,,Mostly Cloudy,0,2013-08-27 15:56:00
12:56 PM,72.0,69.1,91,29.85,10.0,Calm,Calm,-,N/A,,Overcast,0,2013-08-27 16:56:00
1:56 PM,72.0,69.1,91,29.84,10.0,NNE,4.6,-,N/A,,Overcast,30,2013-08-27 17:56:00
2:00 PM,71.6,69.8,94,29.83,10.0,NNE,6.9,-,N/A,,Overcast,20,2013-08-27 18:00:00
2:25 PM,73.4,69.8,88,29.84,10.0,North,8.1,-,N/A,,Mostly Cloudy,10,2013-08-27 18:25:00
2:56 PM,72.0,68.0,87,29.84,10.0,North,6.9,-,N/A,,Overcast,10,2013-08-27 18:56:00
3:56 PM,72.0,69.1,91,29.84,9.0,North,10.4,-,N/A,,Overcast,10,2013-08-27 19:56:00
4:54 PM,71.6,68.0,88,29.84,6.0,North,8.1,-,N/A,,Overcast,10,2013-08-27 20:54:00
4:56 PM,71.1,68.0,90,29.84,6.0,NNE,10.4,-,N/A,,Overcast,20,2013-08-27 20:56:00
5:56 PM,72.0,69.1,91,29.84,9.0,East,5.8,-,N/A,,Overcast,80,2013-08-27 21:56:00
6:12 PM,71.6,68.0,88,29.83,10.0,NE,4.6,-,N/A,,Overcast,50,2013-08-27 22:12:00
6:29 PM,71.6,68.0,88,29.83,10.0,East,3.5,-,N/A,,Scattered Clouds,80,2013-08-27 22:29:00
6:56 PM,72.0,68.0,87,29.84,10.0,North,3.5,-,N/A,,Partly Cloudy,360,2013-08-27 22:56:00
7:13 PM,71.6,68.0,88,29.84,10.0,North,9.2,-,N/A,,Mostly Cloudy,350,2013-08-27 23:13:00
7:20 PM,69.8,68.0,94,29.84,9.0,North,9.2,-,N/A,,Mostly Cloudy,350,2013-08-27 23:20:00
7:29 PM,69.8,66.2,88,29.84,5.0,NNE,5.8,-,N/A,,Overcast,20,2013-08-27 23:29:00
7:56 PM,68.0,66.9,96,29.85,4.0,Calm,Calm,-,N/A,,Overcast,0,2013-08-27 23:56:00
8:02 PM,68.0,66.2,94,29.84,1.8,Calm,Calm,-,N/A,,Overcast,0,2013-08-28 00:02:00
8:23 PM,68.0,66.2,94,29.85,0.8,North,3.5,-,N/A,,Mist,350,2013-08-28 00:23:00
8:56 PM,68.0,66.9,96,29.86,0.5,NE,4.6,-,N/A,Fog,Fog,40,2013-08-28 00:56:00
9:45 PM,68.0,66.2,94,29.87,1.0,Calm,Calm,-,N/A,,Mist,0,2013-08-28 01:45:00
9:56 PM,66.9,66.9,100,29.88,1.8,NE,3.5,-,N/A,,Overcast,40,2013-08-28 01:56:00
10:43 PM,66.2,66.2,100,29.88,0.5,Calm,Calm,-,N/A,Fog,Fog,0,2013-08-28 02:43:00
10:56 PM,66.9,66.9,100,29.89,0.5,Calm,Calm,-,N/A,Fog,Fog,0,2013-08-28 02:56:00
11:56 PM,66.9,66.0,97,29.88,0.5,Calm,Calm,-,N/A,Fog,Fog,0,2013-08-28 03:56:00